Lewistown, MT

4:47 AM MDT on March 28, 2017 (GMT -0600)
Lewistown Municipal

Weather History for KLWT - April, 2014

Change the Weather History Date:

Saturday, April 26, 2014

  Actual Average Record
Temperature  
Mean Temperature 39 °F 44 °F  
Max Temperature 47 °F 57 °F 86 °F (1910)
Min Temperature 31 °F 32 °F 17 °F (1988)
Degree Days  
Heating Degree Days 26 21  
Month to date heating degree days 623 628  
Since 1 July heating degree days 7796 7427  
Cooling Degree Days 0 0  
Month to date cooling degree days 0 0  
Year to date cooling degree days 0 0  
Moisture  
Dew Point 36 °F    
Average Humidity 88    
Maximum Humidity 100    
Minimum Humidity 76    
Precipitation  
Precipitation 0.17 in 0.05 in 1.04 in (1899)
Month to date precipitation 0.80 1.17  
Year to date precipitation 3.55 3.17  
Snow  
Snow 0.00 in - - ()
Snow Depth 0.00 in    
Sea Level Pressure  
Sea Level Pressure 29.56 in    
Wind  
Wind Speed 10 mph (NNW)    
Max Wind Speed 14 mph    
Max Gust Speed 22 mph    
Visibility 8 miles    
Events Rain , Snow    
T = Trace of Precipitation, MM = Missing Value Source: NWS Daily Summary

Daily Weather History Graph

Daily Weather History Graph

Search for Another Location

Airport or City:

Trip Planner

Search our weather history database for the weather conditions in past years. The results will help you decide how hot, cold, wet, or windy it might be!

Date:

Astronomy

Apr. 26, 2014 Rise Set
Actual Time 6:10 AM MDT 8:21 PM MDT
Civil Twilight 5:37 AM MDT 8:55 PM MDT
Nautical Twilight 4:55 AM MDT 9:36 PM MDT
Astronomical Twilight 4:09 AM MDT 10:23 PM MDT
Moon 4:48 AM MDT (4/26) 5:44 PM MDT (4/26)
Length of Visible Light 15h 18m
Length of Day
14h 11m
Waning Crescent, 8% of the Moon is Illuminated
Apr 26
Waning Crescent
Apr 29
New
May 6
First Quarter
May 14
Full
May 21
Last Quarter

Hourly Weather History & Observations

Time (MDT) Temp. Windchill Dew Point Humidity Pressure Visibility Wind Dir Wind Speed Gust Speed Precip Events Conditions
12:54 AM 44.1 °F 37.7 °F 36.0 °F 73% 29.60 in 10.0 mi ESE 12.7 mph - 0.00 in Rain Light Rain
1:54 AM 42.1 °F 34.9 °F 36.0 °F 79% 29.56 in 10.0 mi East 13.8 mph - 0.01 in Rain Light Rain
2:54 AM 42.1 °F 34.9 °F 37.0 °F 82% 29.52 in 10.0 mi East 13.8 mph - 0.00 in Rain Light Rain
3:54 AM 41.0 °F 34.7 °F 37.0 °F 86% 29.51 in 10.0 mi ESE 10.4 mph - 0.01 in   Overcast
4:30 AM 41.0 °F 36.4 °F 36.0 °F 82% 29.53 in 10.0 mi East 6.9 mph - N/A   Overcast
4:52 AM 39.2 °F 32.5 °F 35.6 °F 87% 29.52 in 10.0 mi ESE 10.4 mph - N/A   Overcast
4:54 AM 39.9 °F 33.4 °F 36.0 °F 86% 29.50 in 10.0 mi ESE 10.4 mph - N/A   Overcast
5:05 AM 39.9 °F 32.9 °F 36.0 °F 86% 29.51 in 10.0 mi ESE 11.5 mph - N/A   Overcast
5:43 AM 39.9 °F 35.1 °F 36.0 °F 86% 29.52 in 10.0 mi East 6.9 mph - N/A   Overcast
5:52 AM 39.2 °F 32.5 °F 35.6 °F 87% 29.52 in 10.0 mi ESE 10.4 mph - N/A   Overcast
5:54 AM 39.0 °F 31.8 °F 36.0 °F 89% 29.50 in 10.0 mi SE 11.5 mph - N/A   Overcast
6:54 AM 39.0 °F 33.4 °F 35.1 °F 86% 29.51 in 10.0 mi East 8.1 mph - N/A   Overcast
8:54 AM 42.1 °F 37.7 °F 37.9 °F 85% 29.51 in 10.0 mi ESE 6.9 mph - N/A   Overcast
9:54 AM 42.1 °F 39.2 °F 39.0 °F 89% 29.50 in 10.0 mi ESE 4.6 mph - 0.00 in   Overcast
10:54 AM 45.0 °F 42.6 °F 39.9 °F 82% 29.49 in 10.0 mi North 4.6 mph - 0.00 in   Overcast
11:08 AM 45.0 °F 43.5 °F 39.9 °F 82% 29.51 in 10.0 mi Variable 3.5 mph - N/A   Overcast
12:54 PM 43.0 °F 37.7 °F 39.9 °F 89% 29.51 in 10.0 mi NW 9.2 mph - N/A   Overcast
1:31 PM 42.1 °F 34.5 °F 39.0 °F 89% 29.52 in 10.0 mi WNW 15.0 mph - N/A   Overcast
1:44 PM 42.1 °F 34.2 °F 39.0 °F 89% 29.52 in 10.0 mi WNW 16.1 mph - N/A   Overcast
1:54 PM 42.1 °F 35.2 °F 39.0 °F 89% 29.54 in 10.0 mi WNW 12.7 mph - N/A   Overcast
2:54 PM 41.0 °F 34.3 °F 39.0 °F 93% 29.55 in 7.0 mi NW 11.5 mph - N/A   Overcast
3:15 PM 41.0 °F 34.7 °F 39.9 °F 96% 29.54 in 2.5 mi NW 10.4 mph - 0.01 in Rain Light Rain
3:22 PM 39.9 °F 35.1 °F 39.0 °F 97% 29.54 in 4.0 mi NW 6.9 mph - 0.01 in Rain Light Rain
3:54 PM 39.9 °F 32.1 °F 37.9 °F 93% 29.57 in 8.0 mi WNW 13.8 mph 18.4 mph 0.02 in   Overcast
4:13 PM 39.0 °F 31.0 °F 37.0 °F 93% 29.55 in 10.0 mi NW 13.8 mph 20.7 mph 0.00 in   Overcast
4:42 PM 39.0 °F 34.0 °F 37.0 °F 93% 29.56 in 10.0 mi NW 6.9 mph - 0.00 in   Overcast
4:54 PM 39.0 °F 33.4 °F 37.0 °F 93% 29.59 in 10.0 mi NNW 8.1 mph - 0.00 in   Overcast
5:54 PM 37.9 °F 30.5 °F 37.0 °F 97% 29.59 in 10.0 mi NW 11.5 mph - N/A   Overcast
6:38 PM 37.0 °F 29.8 °F 36.0 °F 96% 29.58 in 7.0 mi NW 10.4 mph 17.3 mph N/A   Overcast
6:46 PM 37.0 °F 28.5 °F 35.1 °F 93% 29.57 in 10.0 mi NW 13.8 mph 18.4 mph N/A   Overcast
6:54 PM 37.0 °F 30.4 °F 35.1 °F 93% 29.61 in 10.0 mi NW 9.2 mph 18.4 mph N/A   Overcast
7:54 PM 36.0 °F 28.5 °F 33.1 °F 89% 29.63 in 10.0 mi NW 10.4 mph 21.9 mph N/A   Overcast
8:50 PM 35.6 °F 27.5 °F 33.8 °F 93% 29.61 in 10.0 mi NW 11.5 mph - 0.00 in   Overcast
8:54 PM 35.1 °F 29.3 °F 33.1 °F 92% 29.64 in 10.0 mi NW 6.9 mph - 0.00 in   Overcast
9:06 PM 34.0 °F 27.2 °F 33.1 °F 96% 29.62 in 10.0 mi NW 8.1 mph - 0.00 in   Overcast
9:29 PM 34.0 °F 26.0 °F 32.0 °F 92% 29.62 in 8.0 mi WNW 10.4 mph - 0.00 in Snow Light Snow
9:54 PM 33.1 °F 24.4 °F 32.0 °F 96% 29.66 in 3.0 mi WNW 11.5 mph - 0.01 in Snow Light Snow
9:57 PM 33.1 °F 24.9 °F 32.0 °F 96% 29.62 in 2.5 mi WNW 10.4 mph - 0.00 in Snow Light Snow
10:05 PM 32.0 °F 23.6 °F 32.0 °F 100% 29.62 in 1.8 mi WNW 10.4 mph - 0.00 in Snow Light Snow
10:35 PM 32.0 °F 24.2 °F 32.0 °F 100% 29.62 in 1.5 mi WNW 9.2 mph - 0.02 in Snow Light Snow
10:54 PM 32.0 °F 23.0 °F 30.9 °F 96% 29.64 in 1.2 mi WNW 11.5 mph - 0.03 in Snow Light Snow
11:54 PM 30.9 °F 21.7 °F 30.9 °F 100% 29.63 in 2.0 mi WNW 11.5 mph - 0.02 in Snow Light Snow